Monroe, MI

6:05 AM EST on November 14, 2019 (GMT -0500)
Custer

Weather History for KTTF - October, 2019

Change the Weather History Date:

Monday, October 21, 2019

  Actual Average Record
Temperature  
Mean Temperature 54 °F -  
Max Temperature 63 °F 57 °F 80 °F (2007)
Min Temperature 45 °F 40 °F 24 °F (1952)
Degree Days  
Heating Degree Days 11    
Growing Degree Days 4 (Base 50)    
Moisture  
Dew Point 54 °F    
Average Humidity 86    
Maximum Humidity 88    
Minimum Humidity 77    
Precipitation  
Precipitation 0.11 in - - ()
Sea Level Pressure  
Sea Level Pressure 29.81 in    
Wind  
Wind Speed 6 mph (SE)    
Max Wind Speed 16 mph    
Max Gust Speed 22 mph    
Visibility 9 miles    
Events Rain    
Averages and records for this station are not official NWS values.
T = Trace of Precipitation, MM = Missing Value Source: NWS Daily Summary

Daily Weather History Graph

Daily Weather History Graph

Search for Another Location

Airport or City:

Astronomy

Oct. 21, 2019 Rise Set
Actual Time 7:52 AM EDT 6:43 PM EDT
Civil Twilight 7:24 AM EDT 7:11 PM EDT
Nautical Twilight 6:51 AM EDT 7:44 PM EDT
Astronomical Twilight 6:19 AM EDT 8:16 PM EDT
Moon No Moon Rise 3:13 PM EDT (10/21)
Length of Visible Light 11h 47m
Length of Day
10h 50m
Waning Gibbous, 48% of the Moon is Illuminated
Oct 21
Waning Gibbous
Oct 27
New
Nov 4
First Quarter
Nov 12
Full
Nov 19
Last Quarter

Hourly Weather History & Observations

Time (EDT) Temp. Windchill Dew Point Humidity Pressure Visibility Wind Dir Wind Speed Gust Speed Precip Events Conditions
12:15 AM 45.0 °F 43.5 °F 41.4 °F 87% 29.96 in 4.0 mi NE 3.5 mph - N/A   Scattered Clouds
12:35 AM 48.2 °F - 44.6 °F 87% 29.96 in 10.0 mi NE 3.5 mph - N/A   Mostly Cloudy
12:58 AM 50.0 °F - 46.4 °F 87% 29.96 in 7.0 mi ENE 3.5 mph - N/A   Overcast
1:16 AM 49.5 °F - 45.9 °F 87% 29.96 in 7.0 mi NE 3.5 mph - N/A   Overcast
1:36 AM 50.2 °F - 46.6 °F 87% 29.96 in 10.0 mi Calm Calm - N/A   Overcast
1:55 AM 50.2 °F - 46.6 °F 87% 29.96 in 10.0 mi Calm Calm - N/A   Overcast
1:56 AM 50.2 °F - 46.6 °F 87% 29.95 in 10.0 mi ENE 3.5 mph - N/A   Overcast
2:19 AM 50.9 °F - 47.1 °F 87% 29.95 in 10.0 mi East 3.5 mph - N/A   Overcast
2:37 AM 50.9 °F - 47.1 °F 87% 29.96 in 10.0 mi Calm Calm - N/A   Mostly Cloudy
2:55 AM 51.3 °F - 47.3 °F 86% 29.95 in 10.0 mi ENE 3.5 mph - N/A   Overcast
3:15 AM 51.6 °F - 46.4 °F 82% 29.96 in 10.0 mi East 3.5 mph - N/A   Mostly Cloudy
3:16 AM 51.6 °F - 46.4 °F 82% 29.96 in 10.0 mi East 3.5 mph - N/A   Mostly Cloudy
3:35 AM 51.6 °F - 46.8 °F 83% 29.95 in 7.0 mi NE 4.6 mph - N/A   Mostly Cloudy
3:58 AM 51.1 °F - 47.5 °F 87% 29.94 in 10.0 mi East 3.5 mph - N/A   Overcast
4:16 AM 51.3 °F - 47.5 °F 87% 29.93 in 7.0 mi ENE 4.6 mph - N/A   Mostly Cloudy
4:35 AM 50.9 °F - 47.3 °F 87% 29.93 in 7.0 mi ENE 3.5 mph - N/A   Overcast
4:55 AM 51.1 °F - 47.5 °F 87% 29.94 in 7.0 mi Calm Calm - N/A   Overcast
5:19 AM 50.4 °F - 46.8 °F 87% 29.94 in 5.0 mi Calm Calm - N/A   Overcast
5:37 AM 51.3 °F - 47.7 °F 87% 29.94 in 5.0 mi ENE 4.6 mph - N/A   Overcast
5:55 AM 51.8 °F - 48.2 °F 88% 29.94 in 7.0 mi ENE 3.5 mph - N/A   Overcast
6:15 AM 51.4 °F - 47.8 °F 87% 29.94 in 7.0 mi Calm Calm - N/A   Overcast
6:16 AM 51.3 °F - 47.7 °F 87% 29.94 in 7.0 mi Calm Calm - N/A   Overcast
6:35 AM 50.9 °F - 47.1 °F 87% 29.94 in 7.0 mi Calm Calm - N/A   Mostly Cloudy
6:40 AM 50.4 °F - 46.8 °F 87% 29.94 in 5.0 mi Calm Calm - N/A   Mostly Cloudy
6:58 AM 50.9 °F - 47.3 °F 87% 29.93 in 4.0 mi ENE 3.5 mph - N/A   Overcast
7:16 AM 52.0 °F - 48.2 °F 87% 29.92 in 5.0 mi East 4.6 mph - N/A   Overcast
7:35 AM 52.9 °F - 49.1 °F 87% 29.91 in 5.0 mi East 4.6 mph - N/A   Overcast
7:55 AM 54.9 °F - 51.1 °F 87% 29.89 in 5.0 mi East 6.9 mph - N/A   Overcast
7:56 AM 55.0 °F - 51.3 °F 87% 29.89 in 5.0 mi East 5.8 mph - N/A   Overcast
8:19 AM 56.1 °F - 52.3 °F 87% 29.89 in 4.0 mi East 6.9 mph - N/A   Overcast
8:37 AM 57.2 °F - 53.4 °F 87% 29.89 in 5.0 mi East 9.2 mph - N/A   Mostly Cloudy
8:55 AM 57.7 °F - 54.0 °F 87% 29.89 in 5.0 mi ESE 10.4 mph - N/A   Scattered Clouds
8:56 AM 57.7 °F - 54.0 °F 87% 29.89 in 5.0 mi ESE 8.1 mph - N/A   Scattered Clouds
9:15 AM 57.9 °F - 54.1 °F 87% 29.89 in 7.0 mi ESE 5.8 mph - N/A   Mostly Cloudy
9:16 AM 58.1 °F - 54.1 °F 87% 29.89 in 7.0 mi ESE 6.9 mph - N/A   Mostly Cloudy
9:35 AM 58.3 °F - 54.5 °F 87% 29.89 in 7.0 mi ESE 8.1 mph - N/A   Overcast
9:58 AM 58.8 °F - 55.0 °F 87% 29.89 in 10.0 mi ESE 6.9 mph - N/A   Scattered Clouds
10:16 AM 59.0 °F - 55.0 °F 87% 29.89 in 10.0 mi SE 6.9 mph - N/A   Mostly Cloudy
10:35 AM 59.2 °F - 55.4 °F 87% 29.87 in 10.0 mi SE 6.9 mph - N/A   Overcast
10:36 AM 59.2 °F - 55.4 °F 87% 29.87 in 10.0 mi SE 6.9 mph - N/A   Overcast
10:55 AM 59.2 °F - 55.4 °F 87% 29.87 in 10.0 mi SSE 8.1 mph - N/A   Overcast
10:56 AM 59.2 °F - 55.4 °F 87% 29.87 in 10.0 mi SSE 8.1 mph - N/A   Overcast
11:19 AM 59.7 °F - 55.8 °F 87% 29.84 in 10.0 mi SE 8.1 mph - N/A   Overcast
11:37 AM 60.8 °F - 56.8 °F 87% 29.85 in 10.0 mi SE 10.4 mph 18.4 mph N/A   Overcast
11:55 AM 61.3 °F - 57.6 °F 87% 29.85 in 10.0 mi SE 9.2 mph - N/A   Overcast
11:56 AM 61.5 °F - 57.7 °F 87% 29.85 in 10.0 mi SE 10.4 mph - N/A   Overcast
12:15 PM 63.0 °F - 58.5 °F 85% 29.84 in 10.0 mi SE 10.4 mph - N/A   Scattered Clouds
12:35 PM 63.0 °F - 58.5 °F 85% 29.81 in 10.0 mi ESE 9.2 mph 17.3 mph N/A   Scattered Clouds
12:40 PM 63.1 °F - 58.5 °F 85% 29.81 in 10.0 mi ESE 10.4 mph 17.3 mph N/A   Scattered Clouds
12:58 PM 62.4 °F - 58.5 °F 87% 29.81 in 10.0 mi ESE 8.1 mph - N/A   Clear
1:16 PM 63.0 °F - 59.0 °F 87% 29.80 in 10.0 mi ESE 8.1 mph - N/A   Clear
1:35 PM 63.1 °F - 58.6 °F 85% 29.79 in 10.0 mi SE 8.1 mph - N/A   Scattered Clouds
1:55 PM 63.7 °F - 57.6 °F 80% 29.78 in 10.0 mi ESE 6.9 mph - N/A   Clear
1:56 PM 63.7 °F - 57.6 °F 80% 29.78 in 10.0 mi ESE 6.9 mph - N/A   Clear
2:19 PM 63.5 °F - 56.1 °F 77% 29.77 in 10.0 mi SE 8.1 mph - N/A   Mostly Cloudy
2:37 PM 62.1 °F - 57.7 °F 86% 29.75 in 10.0 mi SE 6.9 mph - N/A Rain Light Rain
2:55 PM 61.7 °F - 58.1 °F 88% 29.73 in 10.0 mi SE 11.5 mph - 0.01 in Rain Light Rain
3:15 PM 61.2 °F - 57.4 °F 87% 29.74 in 7.0 mi SE 8.1 mph - 0.02 in Rain Rain
3:16 PM 61.0 °F - 57.2 °F 87% 29.74 in 5.0 mi SE 9.2 mph - 0.03 in Rain Rain
3:35 PM 60.8 °F - 56.8 °F 87% 29.70 in 10.0 mi SE 12.7 mph 21.9 mph 0.04 in Rain Light Rain
3:58 PM 61.7 °F - 57.4 °F 86% 29.70 in 10.0 mi SE 10.4 mph 17.3 mph 0.05 in Rain Light Rain
4:16 PM 61.2 °F - 57.2 °F 87% 29.69 in 10.0 mi SE 11.5 mph 20.7 mph N/A Rain Light Rain
4:35 PM 61.0 °F - 57.2 °F 87% 29.70 in 10.0 mi SE 12.7 mph 18.4 mph N/A Rain Light Rain
4:55 PM 61.7 °F - 56.3 °F 82% 29.70 in 10.0 mi SSE 9.2 mph 18.4 mph 0.01 in   Overcast
4:56 PM 61.7 °F - 56.3 °F 82% 29.70 in 10.0 mi SSE 10.4 mph 18.4 mph 0.01 in   Overcast
5:19 PM 61.9 °F - 56.5 °F 82% 29.68 in 10.0 mi SE 13.8 mph 21.9 mph N/A   Light Drizzle
5:37 PM 62.2 °F - 56.5 °F 81% 29.68 in 10.0 mi SE 9.2 mph 18.4 mph N/A   Overcast
5:55 PM 62.6 °F - 56.3 °F 80% 29.68 in 10.0 mi SSE 10.4 mph 17.3 mph N/A   Overcast
6:15 PM 62.2 °F - 56.5 °F 81% 29.67 in 10.0 mi SE 9.2 mph 17.3 mph N/A Rain Light Rain
6:35 PM 61.7 °F - 57.2 °F 85% 29.67 in 10.0 mi SE 10.4 mph - N/A Rain Light Rain
6:40 PM 61.5 °F - 57.4 °F 86% 29.67 in 10.0 mi SE 10.4 mph 16.1 mph N/A Rain Light Rain
6:58 PM 61.3 °F - 57.6 °F 87% 29.67 in 10.0 mi SE 9.2 mph - N/A Rain Light Rain
7:16 PM 60.8 °F - 57.0 °F 87% 29.66 in 10.0 mi SSE 6.9 mph - N/A Rain Light Rain
7:35 PM 60.4 °F - 56.7 °F 87% 29.65 in 10.0 mi SSE 9.2 mph - N/A Rain Light Rain
7:55 PM 61.3 °F - 57.4 °F 87% 29.65 in 10.0 mi SSE 9.2 mph - N/A Rain Light Rain
7:56 PM 61.3 °F - 57.4 °F 87% 29.65 in 10.0 mi SSE 9.2 mph - N/A Rain Light Rain
8:19 PM 62.1 °F - 58.3 °F 87% 29.66 in 10.0 mi SSE 10.4 mph - N/A Rain Light Rain
8:37 PM 62.6 °F - 58.5 °F 86% 29.65 in 10.0 mi SSE 8.1 mph - N/A Rain Light Rain
8:55 PM 63.0 °F - 59.2 °F 87% 29.65 in 10.0 mi South 16.1 mph 21.9 mph N/A Rain Light Rain
9:15 PM 63.5 °F - 59.7 °F 87% 29.65 in 10.0 mi South 12.7 mph 19.6 mph 0.01 in   Overcast
9:35 PM 63.5 °F - 59.4 °F 86% 29.64 in 10.0 mi South 13.8 mph 21.9 mph 0.01 in Rain Light Rain
9:40 PM 63.1 °F - 59.2 °F 87% 29.65 in 10.0 mi South 13.8 mph 20.7 mph 0.02 in Rain Light Rain
9:58 PM 63.0 °F - 59.0 °F 87% 29.65 in 10.0 mi SSE 10.4 mph - 0.02 in   Overcast
10:16 PM 62.6 °F - 58.6 °F 87% 29.65 in 10.0 mi South 10.4 mph - N/A   Overcast
10:35 PM 62.6 °F - 58.6 °F 87% 29.65 in 10.0 mi South 11.5 mph - 0.01 in   Mostly Cloudy
10:55 PM 62.2 °F - 58.5 °F 87% 29.65 in 10.0 mi South 10.4 mph - 0.01 in   Scattered Clouds
11:19 PM 62.2 °F - 58.3 °F 87% 29.65 in 10.0 mi South 11.5 mph 17.3 mph 0.01 in   Scattered Clouds
11:37 PM 62.2 °F - 58.3 °F 87% 29.65 in 10.0 mi South 11.5 mph 18.4 mph 0.01 in   Scattered Clouds
11:55 PM 62.2 °F - 58.5 °F 87% 29.65 in 10.0 mi South 11.5 mph 18.4 mph 0.01 in   Mostly Cloudy